{"data":{"norad_id":59444,"intl_designator":"2024-066C","name":"CAPELLA-14 (ACADIA-4)","alt_names":[],"object_type":"PAYLOAD","status":"ACTIVE","operator":null,"country":"US","launch_date":"2024-04-07","launch_site_code":"AFETR","launch_vehicle":null,"mission":null,"orbit_class":"UNKNOWN","rcs_meters":null,"size_class":null,"mass_kg":null,"dimensions":null,"purposes":[],"wikipedia_slug":null,"has_3d_model":false,"image_url":null,"decayed_at":null,"tle_current":{"epoch":"2026-05-25T00:19:40.225728Z","epoch_age_seconds":77164,"freshness":"FRESH","line1":"1 59444U 24066C   26145.01366002  .00015837  00000+0  89215-3 0  9991","line2":"2 59444  45.6051  17.5519 0006584 189.5359 170.5404 15.13118521108974","mean_motion":15.13118521,"eccentricity":0.0006584,"inclination_deg":45.6051,"raan_deg":17.5519,"arg_perigee_deg":189.5359,"mean_anomaly_deg":170.5404,"bstar":0.00089215,"rev_number":10897,"period_min":95.16769374076,"perigee_km":522.15034491757,"apogee_km":531.24262965362,"semimajor_km":6904.8334872856,"source":"CELESTRAK","updated_at":"2026-05-25T13:38:01.424465Z"}}}